Stations météo

réclame
Mon MeteoGroup
Cabauw Tower, Pays-Bas (6348): Température de l'air & dewpoint: 14.04.2018 22:00:00 - 20.04.2018 22:00:00 (CEST)Cabauw Tower, Pays-Bas (6348): Température de l'air 5cm: 14.04.2018 22:00:00 - 20.04.2018 22:00:00 (CEST)Cabauw Tower, Pays-Bas (6348): Vitesse du vent & gusts: 14.04.2018 22:00:00 - 20.04.2018 22:00:00 (CEST)Cabauw Tower, Pays-Bas (6348): Direction du vent: 14.04.2018 22:00:00 - 20.04.2018 22:00:00 (CEST)Cabauw Tower, Pays-Bas (6348): reduced air pressure: 14.04.2018 22:00:00 - 20.04.2018 22:00:00 (CEST)Cabauw Tower, Pays-Bas (6348): visibility: 14.04.2018 22:00:00 - 20.04.2018 22:00:00 (CEST)Cabauw Tower, Pays-Bas (6348): Quantités de précipitations: 14.04.2018 22:00:00 - 20.04.2018 22:00:00 (CEST)
Date & Time tt [°C] td [°C] tt 5cm [°C] ff [km/h] ff [knt] fx [km/h] fx [knt] dd ppp [hPa] vv [km] rr [mm]
20.04.2018 22:00:00 13,0 10,5 12,2 16 9 - - NW 1022,5 4,5 -
20.04.2018 21:00:00 15,8 12,4 13,2 7 4 18 10 NW 1022,1 7 0,0
20.04.2018 20:00:00 18,4 13,6 17,3 11 6 18 10 NW 1021,6 9 0,0
20.04.2018 19:00:00 21,7 14,5 21,3 11 6 18 10 NNW 1021,6 16 0,0
20.04.2018 18:00:00 23,6 11,6 23,9 14 8 22 12 W 1021,7 36 0,0
20.04.2018 17:00:00 24,3 11,8 25,1 18 10 25 14 W 1021,9 30 0,0
20.04.2018 16:00:00 24,6 12,4 25,5 22 12 29 16 W 1022,1 32 0,0
20.04.2018 15:00:00 25,2 15,2 27,0 14 8 22 12 W 1022,2 18 0,0
20.04.2018 14:00:00 25,2 15,1 27,3 14 8 22 12 SW 1022,4 16 0,0
20.04.2018 13:00:00 24,8 14,4 26,6 11 6 18 10 SW 1022,7 18 0,0
20.04.2018 12:00:00 24,0 15,3 25,7 11 6 14 8 SSW 1022,7 18 0,0
20.04.2018 11:00:00 22,5 15,3 24,3 7 4 14 8 SSW 1022,7 13 0,0
20.04.2018 10:00:00 20,5 13,9 21,2 11 6 14 8 SW 1022,4 11 0,0
20.04.2018 09:00:00 17,8 13,7 17,5 7 4 11 6 SSW 1022,6 7 0,0
20.04.2018 08:00:00 14,6 12,2 13,1 7 4 11 6 SSW 1022,5 5 0,0
20.04.2018 07:00:00 12,0 10,0 8,6 7 4 11 6 S 1022,3 5 0,0
20.04.2018 06:00:00 12,2 10,2 8,6 7 4 11 6 S 1022,3 4,5 0,0
20.04.2018 05:00:00 12,1 10,7 9,0 7 4 7 4 S 1022,5 4,3 0,0
20.04.2018 04:00:00 11,9 10,8 8,7 7 4 7 4 S 1022,8 3,9 0,0
20.04.2018 03:00:00 12,2 11,5 8,6 4 2 7 4 SSE 1022,9 2,8 0,0
20.04.2018 02:00:00 12,2 11,5 9,4 4 2 7 4 SSW 1023,2 4,1 0,0
20.04.2018 01:00:00 12,8 10,8 10,3 4 2 11 6 NNW 1023,2 5 0,0
20.04.2018 00:00:00 16,8 9,3 12,4 11 6 14 8 NNE 1023,3 9 0,0
19.04.2018 23:00:00 15,2 11,2 11,2 4 2 14 8 N 1023,6 7 0,0
19.04.2018 22:00:00 16,0 11,2 13,8 11 6 18 10 NW 1023,9 8 0,0
19.04.2018 21:00:00 19,4 12,5 16,6 7 4 14 8 SW 1023,3 35 0,0
19.04.2018 20:00:00 23,6 11,9 20,6 7 4 14 8 ESE 1023,0 40 0,0
19.04.2018 19:00:00 26,1 12,8 24,4 7 4 22 12 ESE 1023,3 36 0,0
19.04.2018 18:00:00 27,2 10,0 26,1 14 8 25 14 ESE 1023,6 39 0,0
19.04.2018 17:00:00 27,5 8,5 26,7 22 12 29 16 SE 1023,9 35 0,0
19.04.2018 16:00:00 26,7 13,0 26,3 18 10 29 16 ESE 1024,5 29 0,0
19.04.2018 15:00:00 26,2 13,1 26,6 18 10 25 14 ESE 1025,2 22 0,0
19.04.2018 14:00:00 25,5 11,6 26,5 14 8 25 14 SE 1025,7 21 0,0
19.04.2018 13:00:00 24,4 12,4 25,4 18 10 29 16 ESE 1026,1 23 0,0
19.04.2018 12:00:00 23,6 12,0 24,4 14 8 22 12 SSE 1026,6 23 0,0
19.04.2018 11:00:00 22,0 12,5 22,8 11 6 22 12 SE 1026,7 21 0,0
19.04.2018 10:00:00 19,9 12,0 20,5 11 6 22 12 ESE 1026,9 20 0,0
19.04.2018 09:00:00 17,1 10,5 17,1 11 6 18 10 ESE 1027,1 15 0,0
19.04.2018 08:00:00 15,1 9,3 14,0 14 8 18 10 ESE 1027,0 12 0,0
19.04.2018 07:00:00 13,5 9,0 11,6 14 8 18 10 ESE 1026,9 10 0,0
19.04.2018 06:00:00 13,7 9,3 11,6 11 6 18 10 ESE 1026,9 10 0,0
19.04.2018 05:00:00 14,4 9,3 12,2 11 6 18 10 ESE 1027,1 10 0,0
19.04.2018 04:00:00 15,1 9,5 13,1 11 6 18 10 ESE 1027,2 11 0,0
19.04.2018 03:00:00 15,6 9,4 13,7 11 6 22 12 ESE 1027,4 11 0,0
19.04.2018 02:00:00 16,6 9,2 14,4 14 8 22 12 E 1027,9 13 0,0
19.04.2018 01:00:00 16,7 9,3 14,5 11 6 18 10 E 1028,4 16 0,0
19.04.2018 00:00:00 17,2 9,1 14,6 11 6 18 10 E 1028,6 19 0,0
18.04.2018 23:00:00 18,7 8,9 16,0 11 6 14 8 E 1028,8 20 0,0
18.04.2018 22:00:00 18,2 9,6 14,3 11 6 14 8 ENE 1028,6 19 0,0
18.04.2018 21:00:00 19,2 10,4 16,3 11 6 14 8 ENE 1028,5 18 0,0
18.04.2018 20:00:00 21,0 11,0 19,2 7 4 14 8 E 1028,6 25 0,0
18.04.2018 19:00:00 22,5 11,7 21,7 11 6 18 10 E 1028,7 16 0,0
18.04.2018 18:00:00 23,4 9,5 23,0 11 6 18 10 ESE 1029,0 25 0,0
18.04.2018 17:00:00 23,4 9,7 23,7 7 4 18 10 ESE 1029,5 20 0,0
18.04.2018 16:00:00 23,2 10,3 24,0 11 6 18 10 SE 1029,8 23 0,0
18.04.2018 15:00:00 22,6 10,8 24,1 11 6 18 10 SSE 1030,5 25 0,0
18.04.2018 14:00:00 22,2 10,1 23,7 11 6 18 10 SSE 1030,8 28 0,0
18.04.2018 13:00:00 21,6 10,8 23,2 11 6 18 10 SSE 1031,1 21 0,0
18.04.2018 12:00:00 20,5 10,9 22,4 11 6 14 8 SSE 1031,3 21 0,0
18.04.2018 11:00:00 18,9 11,6 20,4 7 4 14 8 S 1031,3 20 0,0
18.04.2018 10:00:00 16,7 11,7 17,3 7 4 14 8 SSE 1031,1 16 0,0
18.04.2018 09:00:00 13,9 10,1 14,0 11 6 14 8 SSE 1030,6 17 0,0
18.04.2018 08:00:00 12,1 8,6 10,6 7 4 11 6 SE 1030,3 18 0,0
18.04.2018 07:00:00 9,4 7,5 6,7 7 4 11 6 SSE 1029,7 17 0,0
18.04.2018 06:00:00 10,1 7,6 6,8 7 4 11 6 SE 1029,1 17 0,0
18.04.2018 05:00:00 10,8 7,7 7,0 11 6 14 8 SE 1028,8 21 0,0
18.04.2018 04:00:00 10,9 7,8 5,8 7 4 11 6 SSE 1028,2 23 0,0
18.04.2018 03:00:00 10,7 8,1 5,7 7 4 14 8 S 1028,0 22 0,0
18.04.2018 02:00:00 10,3 8,4 6,8 7 4 11 6 S 1027,8 22 0,0
18.04.2018 01:00:00 11,5 8,6 7,1 11 6 11 6 SSE 1027,6 21 0,0
18.04.2018 00:00:00 11,3 8,8 6,9 7 4 11 6 SSE 1027,2 20 0,0
17.04.2018 23:00:00 12,0 8,9 7,7 11 6 11 6 S 1026,9 21 0,0
17.04.2018 22:00:00 12,7 10,0 8,0 7 4 7 4 SSE 1026,5 19 0,0
17.04.2018 21:00:00 13,4 10,9 10,1 4 2 7 4 S 1025,9 22 0,0
17.04.2018 20:00:00 15,4 11,1 14,1 11 6 14 8 SSW 1025,1 25 0,0
17.04.2018 19:00:00 18,7 9,9 18,7 11 6 22 12 SW 1024,8 27 0,0
17.04.2018 18:00:00 19,4 9,5 19,7 14 8 32 18 WSW 1025,0 25 0,0
17.04.2018 17:00:00 18,9 9,3 19,3 18 10 32 18 SSW 1024,7 23 0,0
17.04.2018 16:00:00 19,5 8,1 20,8 18 10 29 16 SSW 1024,4 25 0,0
17.04.2018 15:00:00 19,1 9,1 19,9 18 10 29 16 S 1024,2 21 0,0
17.04.2018 14:00:00 18,3 8,9 20,3 22 12 36 19 SSW 1024,3 22 0,0
17.04.2018 13:00:00 17,2 7,8 19,2 22 12 40 21 SSW 1024,5 23 0,0
17.04.2018 12:00:00 16,8 7,7 18,5 25 14 36 19 SSW 1024,6 23 0,0
17.04.2018 11:00:00 15,7 9,8 16,2 22 12 29 16 S 1024,3 21 0,0
17.04.2018 10:00:00 13,5 9,0 13,9 14 8 25 14 SSE 1024,1 16 0,0
17.04.2018 09:00:00 11,3 8,5 10,9 14 8 22 12 SSE 1024,1 17 0,0
17.04.2018 08:00:00 8,7 6,1 8,1 11 6 14 8 SE 1023,4 16 0,0
17.04.2018 07:00:00 6,8 5,1 4,6 7 4 11 6 SSE 1023,4 18 0,0
17.04.2018 06:00:00 6,8 5,1 5,2 7 4 14 8 SSE 1022,2 20 0,0
17.04.2018 05:00:00 7,3 4,6 6,0 11 6 18 10 SE 1022,0 25 0,0
17.04.2018 04:00:00 7,3 5,3 5,7 11 6 14 8 SE 1022,1 21 0,0
17.04.2018 03:00:00 7,3 5,2 6,0 14 8 14 8 SE 1021,8 17 0,0
17.04.2018 02:00:00 7,6 4,9 4,5 11 6 14 8 SE 1021,7 29 0,0
17.04.2018 01:00:00 7,3 4,8 4,6 11 6 11 6 SSE 1021,4 30 0,0
17.04.2018 00:00:00 7,3 5,5 3,9 7 4 7 4 SE 1021,1 22 0,0
16.04.2018 23:00:00 7,8 6,1 4,4 7 4 11 6 SSE 1020,6 23 0,0
16.04.2018 22:00:00 8,1 6,3 4,8 0 0 11 6 N 1020,1 23 0,0
16.04.2018 21:00:00 9,4 5,9 7,5 11 6 14 8 W 1019,8 27 0,0
16.04.2018 20:00:00 11,8 6,9 11,2 11 6 22 12 W 1018,6 27 0,0
16.04.2018 19:00:00 13,5 6,5 13,6 18 10 25 14 WNW 1017,8 29 0,0
16.04.2018 18:00:00 14,5 7,6 14,2 18 10 29 16 WNW 1017,6 24 0,0
16.04.2018 17:00:00 14,6 7,0 15,0 18 10 29 16 W 1017,3 28 0,0
16.04.2018 16:00:00 15,1 7,4 17,1 22 12 29 16 W 1017,0 27 0,0
16.04.2018 15:00:00 14,1 7,8 15,5 18 10 32 18 W 1016,6 21 0,0
16.04.2018 14:00:00 13,9 9,2 16,2 22 12 36 19 WSW 1016,4 23 0,0
16.04.2018 13:00:00 14,3 9,3 15,7 22 12 29 16 SW 1016,0 20 0,0
16.04.2018 12:00:00 13,4 8,7 15,0 18 10 29 16 SW 1015,5 17 0,0
16.04.2018 11:00:00 13,1 9,6 14,0 22 12 29 16 WSW 1015,0 17 0,0
16.04.2018 10:00:00 11,7 9,1 12,5 18 10 25 14 WSW 1014,4 14 0,0
16.04.2018 09:00:00 11,7 9,6 11,3 18 10 25 14 SW 1013,8 14 0,0
16.04.2018 08:00:00 10,7 9,9 10,3 14 8 22 12 WSW 1013,1 8 0,0
16.04.2018 07:00:00 8,3 8,2 5,8 7 4 11 6 SSW 1012,3 1,7 0,0
16.04.2018 06:00:00 8,1 8,0 5,7 7 4 11 6 SSW 1011,8 3,6 0,0
16.04.2018 05:00:00 9,1 8,5 7,0 11 6 11 6 SSW 1011,4 18 0,0
16.04.2018 04:00:00 10,8 9,8 10,2 7 4 14 8 S 1011,2 21 0,0
16.04.2018 03:00:00 11,6 10,6 11,2 7 4 14 8 SW 1010,8 16 0,1
16.04.2018 02:00:00 12,1 10,2 11,3 14 8 22 12 SW 1010,8 45 0,0
16.04.2018 01:00:00 11,5 10,6 10,0 7 4 11 6 SSW 1010,4 9 0,0
16.04.2018 00:00:00 12,8 11,9 12,2 7 4 11 6 SSW 1010,4 8 0,0
15.04.2018 23:00:00 12,7 12,0 12,1 7 4 11 6 SE 1010,6 7 0,0
15.04.2018 22:00:00 12,7 12,3 11,7 7 4 7 4 SE 1010,6 7 0,0
15.04.2018 21:00:00 12,8 12,2 12,3 7 4 7 4 ESE 1010,3 10 0,0
15.04.2018 20:00:00 13,4 12,7 13,2 4 2 11 6 NW 1010,1 13 0,9
15.04.2018 19:00:00 14,4 12,5 14,4 7 4 11 6 W 1010,2 8 1,1
15.04.2018 18:00:00 15,7 11,7 15,8 0 0 11 6 N 1009,8 27 0,2
15.04.2018 17:00:00 14,7 12,3 14,8 14 8 25 14 WSW 1010,4 12 0,9
15.04.2018 16:00:00 16,9 11,9 17,1 11 6 14 8 SW 1010,5 38 0,0
15.04.2018 15:00:00 16,1 11,7 16,2 11 6 22 12 SSW 1010,9 40 0,0
15.04.2018 14:00:00 17,1 11,9 18,4 14 8 25 14 SSW 1011,2 26 0,0
15.04.2018 13:00:00 16,7 12,4 17,6 14 8 22 12 SSW 1011,6 27 0,0
15.04.2018 12:00:00 15,1 11,4 16,6 14 8 18 10 S 1011,9 24 0,0
15.04.2018 11:00:00 13,9 11,4 14,7 14 8 22 12 SSW 1012,4 13 0,0
15.04.2018 10:00:00 13,3 11,9 13,5 14 8 25 14 S 1012,7 7 0,0
15.04.2018 09:00:00 11,9 11,5 12,0 11 6 14 8 SSE 1013,1 1,9 0,0
15.04.2018 08:00:00 10,7 10,6 10,7 11 6 18 10 SE 1013,5 0,9 0,1
15.04.2018 07:00:00 10,3 10,2 10,2 7 4 18 10 SE 1013,7 1,4 0,0
15.04.2018 06:00:00 10,4 10,1 10,3 11 6 18 10 SE 1014,0 1,6 0,4
15.04.2018 05:00:00 10,4 10,1 10,3 7 4 14 8 ESE 1014,4 1,6 0,2
15.04.2018 04:00:00 10,3 9,9 10,2 7 4 14 8 E 1014,6 2,2 0,3
15.04.2018 03:00:00 10,3 10,0 10,3 11 6 18 10 E 1015,5 1,7 2,1
15.04.2018 02:00:00 10,2 9,4 9,9 14 8 18 10 E 1016,0 2,8 3,5
15.04.2018 01:00:00 10,5 8,9 10,2 7 4 11 6 E 1017,0 4,1 1,7
15.04.2018 00:00:00 11,6 7,8 10,8 7 4 14 8 ENE 1017,1 8 0,0
14.04.2018 23:00:00 11,3 7,6 10,7 7 4 14 8 NNE 1017,5 8 0,0
14.04.2018 22:00:00 11,7 8,0 11,0 11 6 18 10 NE 1017,7 9 0,0

tt = Température de l'air
td = dewpoint
tt 5cm = Température de l'air 5cm
ff = Vitesse du vent
fx = gusts
dd = Direction du vent
ppp = reduced air pressure
vv = visibility
rr = Quantités de précipitations

stations d'obs. à proximité